{"data":{"norad_id":53723,"epoch":"2026-09-20T21:34:22.774944Z","epoch_age_seconds":47223,"freshness":"FRESH","line1":"1 53723U 22107Z   26263.89887471 -.00000543  00000+0 -46607-5 0  9994","line2":"2 53723  53.1604  83.7936 0001225  87.1995 272.9148 15.35396650224213","mean_motion":15.3539665,"eccentricity":0.0001225,"inclination_deg":53.1604,"raan_deg":83.7936,"arg_perigee_deg":87.1995,"mean_anomaly_deg":272.9148,"bstar":-4.6607e-6,"rev_number":22421,"period_min":93.786840032509,"perigee_km":458.90494860971,"apogee_km":460.58022910898,"semimajor_km":6837.8795888593,"source":"CELESTRAK","updated_at":"2026-09-21T09:00:32.985904Z"}}